Location: Caualo
(45.5667°N, 10.8667°E)
Time: 13:11:05
(UTC+00:00)

In-Cosmos 22 Rocket - Pass Details

Date: 07 June 2020
Orbit: 790 x 888 km, 81.2° (Epoch: 15 July)

Event Time Altitude Azimuth Distance (km) Brightness Sun altitude
Exits shadow 01:31:07 19° 186° (S) 1,899 5.5 -15.0°
Maximum altitude 01:35:12 85° 99° (E) 843 4.2 -14.6°
Drops below altitude 10° 01:40:42 10° 12° (NNE) 2,422 7.7 -14.1°
Sets 01:43:04 0° 12° (NNE) 3,346 8.6 -13.9°
